Hourly Data Report for October 09, 2016

All times are specified in Local Standard Time (LST). Add 1 hour to adjust for Daylight Saving Time where and when it is observed.

PANGNIRTUNG
NUNAVUT

66°08'36.300" N
65°42'40.500" W
22.60 m
2403049
71826
WXP

Download Data

Hourly Data (October 2016)
Hourly Data Report for October 9, 2016
Temp Definition
°C
Dew Point Temp Definition
°C
Rel Hum Definition
%
Wind Dir Definition
10's deg

Wind Spd Definition
km/h
Visibility Definition
km
Stn Press Definition
kPa
Hmdx Definition


Wind Chill Definition


Weather Definition


TIME
00:00 -2.0 -4.1 85 23 8   100.30   -5 LegendNANA
01:00 -2.1 -4.2 86 23 9   100.30   -6 LegendNANA
02:00 -2.4 -4.7 84 22 5   100.32   -4 LegendNANA
03:00 -2.4 -4.5 85 21 5   100.31   -4 LegendNANA
04:00 -2.2 -4.7 83 19 2   100.32   -3 LegendNANA
05:00 -2.4 -4.4 86 21 2   100.34   -3 LegendNANA
06:00 -2.1 -4.3 85 19 11   100.36   -6 LegendNANA
07:00 -1.9 -4.3 83 25 3   100.37   -3 LegendNANA
08:00 -1.6 -4.5 81 12 8   100.36   -5 LegendNANA
09:00 -1.3 -4.4 80 11 9   100.37   -5 LegendNANA
10:00 -1.2 -4.8 76 6 4   100.36   -3 LegendNANA
11:00 -1.3 -4.6 78 1 4   100.35   -3 LegendNANA
12:00 -0.6 -4.4 76 29 3   100.38   -2 LegendNANA
13:00 -0.5 -4.0 77 28 4   100.39   -2 LegendNANA
14:00 -0.9 -3.9 80 26 11   100.43   -5 LegendNANA
15:00 -1.2 -4.4 79 23 7   100.45   -4 LegendNANA
16:00 -1.9 -5.3 78 19 5   100.49   -4 LegendNANA
17:00 -2.9 -5.7 81 17 6   100.51   -5 LegendNANA
18:00 -4.1 -6.6 82 25 2   100.55   -5 LegendNANA
19:00 -3.6 -6.3 82 23 3   100.56   -5 LegendNANA
20:00 -4.0 -6.1 85 17 2   100.60   -5 LegendNANA
21:00 -3.6 -6.2 82 28 9   100.62   -7 LegendNANA
22:00 -3.1 -6.3 79 23 12   100.62   -8 LegendNANA
23:00 -3.7 -6.1 83 24 15   100.67   -9 LegendNANA

Notes on Data Quality.

Legend

  • E = Estimated
  • M = Missing
  • NA = Not Available
  • ‡ = Partner data that is not subject to review by the National Climate Archives
Date modified: